Regional Weather Roundup
Issued by NWS Charleston, WV

Current Version | Previous Version | Text Only | Print | Product List | Glossary On
Versions: 1 2 3 4 5 6 7 8 9 10 11 12 13 14 15 16 17 18 19 20 21 22 23 24 25 26 27 28 29 30 31 32 33 34 35 36 37 38 39 40 41 42 43 44 45 46 47 48 49 50
000 ASUS41 KRLX 191510 RWRRLX Regional Weather Roundup National Weather Service Charleston WV 1100 AM EDT MON APR 19 2021 Note: "fair" indicates few or no clouds below 12,000 feet with no significant weather and/or obstructions to visibility. WVZ003-191600- Northern Panhandle of West Virginia CITY SKY/WX TMP DP RH WIND PRES REMARKS WHEELING SUNNY 57 38 48 W5 29.88S $$ WVZ009-191600- Northwest West Virginia CITY SKY/WX TMP DP RH WIND PRES REMARKS PARKERSBURG PTSUNNY 58 33 39 VRB3 29.90S $$ WVZ006-191600- Western West Virginia CITY SKY/WX TMP DP RH WIND PRES REMARKS HUNTINGTON CLOUDY 55 39 54 NW8 29.94R $$ WVZ015-191600- West Central West Virginia CITY SKY/WX TMP DP RH WIND PRES REMARKS CHARLESTON N/A 59 36 42 VRB3 29.92R $$ WVZ509-031-039-191600- North Central West Virginia CITY SKY/WX TMP DP RH WIND PRES REMARKS MORGANTOWN SUNNY 58 37 45 W7 29.90R CLARKSBURG SUNNY 57 32 38 NW3 29.89S BUCKHANNON SUNNY 61 30 31 VRB6G13 29.90S $$ WVZ515-516-025-034-042-507-191600- Southern West Virginia CITY SKY/WX TMP DP RH WIND PRES REMARKS BECKLEY PTSUNNY 55 31 39 NW10G18 29.91R LOGAN FAIR 57 36 44 W9 29.93S PINEVILLE NOT AVBL BLUEFIELD MOSUNNY 53 30 41 N9 29.92R LEWISBURG MOSUNNY 54 34 47 CALM 29.89F $$ WVZ525-526-191600- Northern Mountains of West Virginia CITY SKY/WX TMP DP RH WIND PRES REMARKS ELKINS SUNNY 58 24 27 NW10G18 29.89S $$ WVZ502-504-052-191600- Eastern Panhandle of West Virginia CITY SKY/WX TMP DP RH WIND PRES REMARKS PETERSBURG SUNNY 61 34 36 CALM 29.86F CUMBERLAND SUNNY 58 39 49 S3 29.90F MARTINSBURG PTSUNNY 54 39 57 SE5 29.86F $$ OHZ075-083-KYZ101-191600- Southeast Ohio/Northeast Kentucky CITY SKY/WX TMP DP RH WIND PRES REMARKS ATHENS CLOUDY 54 34 46 SW3 29.91F JACKSON FAIR 54 41 62 CALM 29.94F ASHLAND PTSUNNY 54 43 66 CALM 29.95S $$

USA.gov is the U.S. government's official web portal to all federal, state and local government web resources and services.